Vertical_Velocity
-1 -1 -1 -2 -1 -0 0 0 -0 -0 1 0 0 -0 0 2 1 -1 -0 -2 -0 0 2 2 -0 -2 -2 -3 -1 -0 -1 -2 -7 -4 -7 -6 -1 -4 3 4 -1 8 -4
-1 1 0 0 1 1 1 -0 1 1 -1 -1 -1 0 1 0 1 -1 0 -1 0 -1 1 -1 -3 0 -2 -1 2 -2 -2 -2 0 -2 -1 -4 1 -2 -0 1 -1 9 11
-0 -0 -0 0 -1 -0 1 -0 -0 1 0 1 0 1 0 0 -1 1 0 1 -0 1 -1 -2 -3 -1 -1 0 -4 -3 -2 -0 -2 -5 -3 -3 1 -1 -0 -0 1 4 -0
-1 0 0 -1 1 -0 -1 -1 -0 2 -1 -2 2 0 -1 0 -1 0 -1 -0 -1 -2 0 -3 -2 -1 1 -2 -3 0 -2 -2 -5 -4 -4 -3 -5 -2 -4 -3 0 1 5
1 0 -1 -3 0 2 -3 3 -3 -0 0 -1 -1 -2 -2 -1 -2 -2 -2 -0 -2 -2 -2 -3 -2 -1 -3 -2 -2 -1 -1 -1 -0 -1 -1 -1 -3 -4 -1 -1 -3 -3 -1
7 -3 -1 0 2 -6 4 2 -3 0 -1 0 -0 -1 -1 -3 -2 -0 1 -1 -2 -4 -3 -2 -2 -3 -3 -2 -3 0 -1 -1 -2 -4 -2 -3 -4 -2 -0 -0 -1 -0 -3
8 -6 6 -1 -2 -1 2 1 -3 -1 -1 0 1 -2 -1 -1 2 -2 2 -1 -2 -3 -1 -3 -3 -3 -2 -2 -3 -2 -2 -1 -1 -2 -1 -1 -1 -0 -1 -0 -0 1 3
-1 4 -2 0 -3 1 3 1 -1 -0 -4 -4 3 -1 -0 0 -2 1 -1 -2 -1 -2 -2 -2 -2 -1 -1 -2 -1 -1 -1 -1 1 -0 -1 -1 -0 -0 -1 -0 -1 -1 -1
3 1 -1 -2 -1 2 1 1 -1 -6 2 0 -1 2 -1 -2 -2 -1 -0 -1 -3 -1 -2 -3 -2 -1 0 -1 1 0 0 0 1 1 1 0 1 1 1 1 -2 -0 2
0 0 0 -1 -1 -1 3 1 -5 2 1 -3 -2 -0 -0 -1 1 0 1 -3 -1 -1 -1 -1 -0 -1 -1 2 -0 0 1 1 -0 -1 -1 -1 -1 -2 -1 0 0 1 1
0 1 0 0 1 -1 1 -1 2 3 -2 -3 -0 -1 -1 -0 0 0 -1 -1 -0 -3 -1 -1 -1 -0 -0 -0 2 1 1 2 0 1 1 1 -0 -1 -1 -1 -1 -0 0
-2 -0 1 1 1 2 -5 2 2 1 -2 -3 0 1 1 1 -0 -1 -0 -0 -2 -2 -1 -1 -1 -1 -1 -1 -1 -2 -1 -1 -0 -0 -0 0 1 0 -0 0 0 1 1
-3 2 2 1 3 -3 -3 -0 1 0 -1 -3 0 -0 -0 -0 -1 -1 -1 -2 -1 -1 -2 -1 -1 -1 -0 -0 -1 -1 -1 -1 -1 -1 -1 -0 -0 0 0 1 1 1 1
1 2 3 0 -1 -1 -3 0 1 -0 -1 -1 1 1 -0 -1 -3 -3 -3 -3 -2 -1 -1 -1 -0 0 1 -0 -1 -1 -0 -1 -1 -0 -0 0 -1 -1 -2 -1 -0 -1 1
1 1 0 0 1 -2 -1 2 1 -1 -3 -0 1 0 0 -0 -1 -1 -1 -1 -1 -2 -2 -1 -0 -0 -0 -0 -1 -1 -1 -1 -1 -1 -1 -1 -1 -1 -1 -1 -0 -0 -2
1 0 1 -0 -1 1 -0 2 -0 -1 -1 -0 0 0 0 -1 -1 -1 -1 -2 -3 -2 -2 -1 -1 -1 -0 -1 -1 -1 -1 -1 -1 -1 -1 -1 -1 -1 -0 -1 -1 -2 -2
-2 -1 -2 -2 0 1 1 2 -1 -1 -1 -1 1 0 0 -1 -1 -1 -3 -3 -2 -1 -1 -0 -0 -1 -1 -1 -1 -1 -1 -1 -1 -0 -0 -1 -0 -1 -1 1 -0 -2 0
-1 -3 -0 -1 -0 0 3 1 -1 -0 -0 -0 0 0 0 0 -1 -1 -2 -3 -4 -2 -1 -2 -1 -1 -1 -1 -1 -1 -1 -0 -0 -1 -1 -1 -0 -0 0 1 -0 -0 1
5 1 1 -1 -0 -0 1 -0 -1 -0 0 1 0 -0 -0 -0 -0 -1 -1 -1 -2 -2 -1 -2 -0 -1 -1 -0 -1 -1 -0 -1 -1 -2 -1 -1 -1 -2 1 -0 -0 -1 -1
0 8 3 -0 -0 1 -1 -1 -1 -0 -0 -0 -0 -1 -0 1 -1 -1 -2 -3 -2 -2 -2 -1 -1 -0 -0 -0 -1 -0 -1 -1 -0 -1 -0 -0 -1 -1 0 -1 -0 -1 1
2 -0 -1 4 4 2 1 -0 -1 1 0 -0 0 0 0 1 -1 -1 -1 -2 -1 -1 -2 -1 -1 -1 -0 -0 -0 -1 -1 0 -1 0 -0 0 -1 1 0 -0 0 -1 -2
0 3 -2 6 5 0 4 0 0 1 1 1 -0 0 -0 0 0 -0 -0 -1 -1 -1 -1 -1 -1 -1 -0 0 -0 1 0 1 0 -0 0 0 0 -0 -1 -0 0 0 0
3 -0 -1 4 8 0 -0 1 2 1 1 1 0 -1 -1 -0 -1 -1 -1 -3 -2 -1 -1 0 1 0 -0 1 -0 -0 2 1 1 0 0 -0 0 1 -0 1 0 1 2
1 2 2 0 6 6 1 1 0 0 -0 -0 1 -1 -1 0 -1 -1 -2 -1 -1 -1 -1 -1 -0 -0 -0 -1 -1 -1 0 0 -0 1 -1 -1 1 1 -2 -2 -1 -0 -1
-1 3 2 11 7 -0 0 1 -0 1 2 1 1 -1 -2 1 -1 -1 1 -1 -0 -0 -1 0 -0 -0 -1 -0 1 0 1 -1 -1 -0 1 1 3 4 2 -2 1 1 2
3 4 2 1 1 1 2 1 2 1 1 0 1 0 -2 -1 0 -0 -2 -1 -1 -2 -1 -1 -1 -1 0 1 0 0 -1 -0 0 1 -2 -3 -3 -0 -3 -3 -0 -2 1
Height
3088 3087 3086 3086 3085 3085 3085 3085 3084 3083 3082 3081 3080 3080 3079 3078 3076 3076 3074 3073 3072 3071 3069 3068 3067 3065 3062 3059 3057 3055 3051 3048 3045 3042 3039 3036 3032 3024 3021 3026 3025 3026 3029
3080 3079 3078 3077 3077 3077 3078 3077 3077 3076 3075 3074 3073 3072 3072 3071 3070 3069 3067 3066 3065 3064 3064 3063 3062 3058 3056 3054 3051 3049 3047 3044 3040 3036 3034 3031 3027 3023 3019 3019 3018 3019 3021
3072 3071 3070 3070 3070 3070 3070 3070 3070 3070 3068 3067 3066 3066 3065 3064 3064 3063 3061 3060 3060 3059 3058 3057 3055 3053 3050 3047 3044 3043 3041 3038 3034 3029 3027 3026 3023 3021 3018 3015 3014 3014 3015
3065 3065 3064 3064 3064 3064 3064 3063 3064 3063 3062 3061 3061 3060 3060 3060 3059 3058 3056 3055 3054 3054 3052 3051 3049 3047 3045 3043 3041 3039 3035 3031 3027 3025 3023 3022 3020 3016 3015 3014 3011 3010 3011
3059 3058 3058 3058 3058 3058 3059 3058 3058 3057 3057 3057 3057 3057 3056 3056 3054 3053 3052 3051 3050 3048 3046 3045 3044 3043 3040 3038 3035 3032 3029 3026 3023 3020 3019 3017 3014 3012 3011 3010 3009 3008 3007
3054 3053 3053 3053 3053 3054 3054 3053 3053 3053 3053 3054 3054 3054 3054 3053 3051 3049 3047 3047 3045 3043 3040 3039 3038 3036 3034 3031 3028 3026 3024 3020 3019 3016 3014 3012 3010 3008 3006 3004 3002 3001 3001
3049 3049 3049 3049 3049 3051 3051 3049 3050 3050 3051 3052 3051 3051 3052 3050 3048 3047 3046 3045 3043 3041 3039 3036 3034 3032 3029 3027 3025 3021 3018 3016 3013 3011 3008 3006 3003 3002 2999 2997 2995 2994 2992
3049 3047 3046 3046 3047 3047 3047 3048 3048 3048 3049 3049 3049 3050 3050 3049 3048 3047 3045 3044 3042 3039 3036 3034 3031 3028 3025 3023 3020 3016 3013 3010 3008 3005 3002 2999 2997 2994 2991 2989 2988 2986 2985
3048 3046 3045 3044 3044 3046 3047 3047 3047 3047 3046 3046 3048 3048 3049 3047 3046 3045 3044 3042 3039 3036 3034 3031 3028 3025 3022 3018 3015 3011 3008 3004 3002 2999 2996 2992 2990 2987 2985 2983 2980 2980 2980
3046 3045 3043 3045 3046 3046 3046 3046 3046 3046 3046 3046 3047 3047 3046 3045 3044 3043 3041 3039 3036 3033 3030 3027 3024 3021 3017 3014 3010 3007 3003 2999 2996 2993 2990 2986 2983 2981 2978 2977 2975 2975 2975
3044 3044 3045 3045 3045 3046 3046 3046 3043 3044 3047 3047 3046 3045 3044 3043 3041 3039 3036 3034 3031 3029 3026 3023 3020 3016 3013 3009 3006 3001 2998 2994 2991 2987 2984 2981 2978 2975 2973 2972 2971 2970 2969
3043 3044 3044 3045 3043 3045 3044 3043 3042 3043 3045 3043 3043 3043 3042 3040 3038 3035 3033 3030 3027 3025 3022 3018 3015 3011 3008 3004 3000 2996 2992 2989 2985 2981 2978 2975 2972 2971 2969 2967 2966 2965 2964
3041 3042 3043 3043 3042 3042 3042 3041 3040 3040 3041 3041 3040 3039 3038 3036 3034 3031 3028 3025 3023 3020 3016 3013 3009 3006 3002 2998 2994 2990 2987 2983 2979 2976 2973 2970 2967 2965 2962 2961 2960 2959 2958
3038 3039 3040 3040 3039 3039 3038 3038 3038 3038 3037 3037 3036 3035 3034 3032 3029 3027 3024 3021 3017 3014 3011 3008 3004 3000 2997 2992 2988 2985 2982 2978 2975 2971 2968 2965 2962 2959 2957 2955 2953 2950 2951
3035 3035 3036 3036 3036 3035 3034 3034 3034 3034 3033 3032 3032 3031 3029 3027 3025 3022 3019 3016 3013 3009 3006 3002 2998 2994 2990 2987 2984 2980 2977 2973 2970 2967 2963 2960 2957 2954 2951 2949 2947 2944 2943
3031 3031 3031 3031 3031 3031 3030 3030 3030 3030 3029 3028 3027 3026 3025 3023 3020 3018 3015 3012 3008 3004 3000 2996 2992 2989 2985 2982 2978 2975 2972 2968 2964 2961 2957 2954 2951 2948 2946 2943 2939 2937 2935
3027 3027 3027 3026 3025 3026 3025 3026 3025 3025 3024 3024 3022 3021 3020 3018 3015 3013 3010 3006 3002 2998 2994 2991 2987 2984 2980 2977 2973 2969 2966 2962 2959 2955 2952 2948 2945 2942 2939 2937 2933 2929 2927
3021 3022 3022 3021 3021 3020 3020 3021 3020 3019 3019 3018 3017 3016 3014 3012 3010 3008 3005 3001 2997 2993 2989 2986 2982 2979 2975 2971 2968 2964 2960 2956 2953 2949 2946 2942 2938 2935 2933 2929 2925 2921 2918
3014 3015 3016 3015 3015 3015 3015 3015 3014 3013 3013 3012 3011 3010 3009 3007 3004 3002 2999 2996 2992 2988 2984 2981 2977 2973 2970 2966 2962 2958 2955 2950 2946 2942 2938 2935 2931 2927 2924 2921 2917 2913 2908
3007 3007 3008 3008 3008 3009 3009 3008 3008 3007 3007 3006 3005 3004 3002 3001 2998 2996 2993 2989 2986 2983 2979 2975 2971 2967 2964 2960 2956 2952 2948 2944 2939 2935 2931 2927 2923 2919 2915 2912 2908 2904 2901
3000 3000 3000 3001 3001 3001 3001 3001 3001 3000 3000 2999 2998 2997 2996 2995 2992 2990 2987 2983 2980 2977 2972 2968 2964 2961 2957 2953 2950 2946 2941 2937 2932 2927 2924 2919 2915 2911 2907 2903 2899 2895 2891
2991 2991 2991 2993 2993 2994 2994 2993 2993 2993 2992 2991 2990 2990 2989 2987 2986 2983 2980 2977 2973 2969 2965 2961 2957 2953 2950 2946 2942 2938 2934 2930 2925 2920 2916 2911 2907 2902 2898 2894 2890 2887 2883
2982 2982 2982 2984 2984 2985 2985 2985 2985 2984 2984 2983 2982 2982 2981 2980 2978 2975 2973 2969 2966 2961 2957 2954 2951 2947 2943 2939 2935 2931 2927 2922 2917 2912 2907 2903 2899 2894 2890 2886 2882 2877 2873
2972 2973 2973 2974 2975 2976 2976 2976 2976 2976 2975 2975 2974 2973 2972 2971 2970 2967 2965 2962 2958 2954 2950 2947 2944 2941 2937 2933 2928 2923 2918 2913 2909 2904 2898 2894 2890 2886 2881 2876 2872 2867 2863
2963 2964 2964 2965 2966 2966 2967 2967 2967 2967 2967 2967 2966 2964 2963 2963 2962 2960 2957 2955 2951 2947 2943 2940 2937 2933 2930 2926 2921 2917 2911 2905 2900 2895 2891 2887 2882 2878 2873 2868 2864 2859 2854
2954 2955 2955 2956 2957 2957 2958 2959 2959 2959 2959 2959 2958 2956 2955 2955 2954 2952 2950 2947 2945 2941 2937 2933 2929 2925 2921 2918 2913 2908 2903 2897 2892 2887 2882 2877 2873 2868 2862 2857 2852 2846 2841